| time (UTC) | temp C | wind direction | speed KPH | gust KPH | rain 1hr cm | rain 24hr cm | rain mn cm | humidity % | barometer mb |
| 20260906225639 | 26 | 43 | 12.9 | 22.5 | 0.00 | 0.00 | 0.00 | 33 | 1012.9 |
| 20260906225139 | 26 | 36 | 12.9 | 22.5 | 0.00 | 0.00 | 0.00 | 35 | 1013.0 |
| 20260906224845 | 26 | 101 | 12.9 | 25.7 | 0.00 | 0.00 | 0.00 | 32 | 1012.9 |
| 20260906224046 | 27 | 53 | 9.7 | 25.7 | 0.00 | 0.00 | 0.00 | 24 | 1013.0 |
| 20260906223534 | 27 | 59 | 11.3 | 20.9 | 0.00 | 0.00 | 0.00 | 20 | 1013.0 |
| 20260906223009 | 27 | 74 | 12.9 | 22.5 | 0.00 | 0.00 | 0.00 | 21 | 1013.1 |
| 20260906222444 | 27 | 102 | 12.9 | 27.4 | 0.00 | 0.00 | 0.00 | 24 | 1013.2 |
| 20260906222420 | 27 | 70 | 14.5 | 27.4 | 0.00 | 0.00 | 0.00 | 22 | 1013.1 |
| 20260906221414 | 27 | 75 | 14.5 | 27.4 | 0.00 | 0.00 | 0.00 | 21 | 1013.1 |
| 20260906220915 | 26 | 83 | 12.9 | 27.4 | 0.00 | 0.00 | 0.00 | 21 | 1013.2 |
| 20260906220412 | 26 | 74 | 12.9 | 20.9 | 0.00 | 0.00 | 0.00 | 23 | 1013.3 |
| 20260906215846 | 26 | 0 | 12.9 | 19.3 | 0.00 | 0.00 | 0.00 | 27 | 1013.6 |
| 20260906215318 | 26 | 62 | 11.3 | 19.3 | 0.00 | 0.00 | 0.00 | 25 | 1013.4 |
| 20260906214753 | 26 | 73 | 12.9 | 25.7 | 0.00 | 0.00 | 0.00 | 25 | 1013.4 |
| 20260906214226 | 26 | 88 | 14.5 | 25.7 | 0.00 | 0.00 | 0.00 | 25 | 1013.4 |
| 20260906213723 | 26 | 67 | 14.5 | 24.1 | 0.00 | 0.00 | 0.00 | 25 | 1013.6 |
| 20260906213451 | 26 | 105 | 12.9 | 20.9 | 0.00 | 0.00 | 0.00 | 27 | 1013.6 |
| 20260906212655 | 26 | 99 | 12.9 | 19.3 | 0.00 | 0.00 | 0.00 | 27 | 1013.7 |
| 20260906212128 | 26 | 99 | 9.7 | 17.7 | 0.00 | 0.00 | 0.00 | 27 | 1013.8 |
| 20260906211626 | 25 | 96 | 9.7 | 19.3 | 0.00 | 0.00 | 0.00 | 26 | 1013.7 |
| 20260906211354 | 25 | 84 | 9.7 | 19.3 | 0.00 | 0.00 | 0.00 | 27 | 1013.8 |
| 20260906210556 | 25 | 94 | 8.0 | 19.3 | 0.00 | 0.00 | 0.00 | 29 | 1013.9 |
| 20260906210031 | 25 | 83 | 11.3 | 19.3 | 0.00 | 0.00 | 0.00 | 28 | 1014.2 |
| 20260906205505 | 25 | 112 | 8.0 | 19.3 | 0.00 | 0.00 | 0.00 | 30 | 1014.2 |
| 20260906205000 | 25 | 126 | 4.8 | 16.1 | 0.00 | 0.00 | 0.00 | 30 | 1014.3 |
| 20260906204434 | 25 | 23 | 6.4 | 17.7 | 0.00 | 0.00 | 0.00 | 32 | 1014.3 |
| 20260906203930 | 24 | 114 | 8.0 | 17.7 | 0.00 | 0.00 | 0.00 | 34 | 1014.5 |
| 20260906203405 | 24 | 106 | 8.0 | 19.3 | 0.00 | 0.00 | 0.00 | 32 | 1014.5 |
| 20260906203133 | 24 | 87 | 11.3 | 19.3 | 0.00 | 0.00 | 0.00 | 32 | 1014.6 |
| 20260906202358 | 24 | 106 | 9.7 | 24.1 | 0.00 | 0.00 | 0.00 | 32 | 1014.6 |
| 20260906202104 | 24 | 105 | 8.0 | 24.1 | 0.00 | 0.00 | 0.00 | 32 | 1014.6 |
| 20260906201329 | 24 | 103 | 9.7 | 17.7 | 0.00 | 0.00 | 0.00 | 32 | 1014.7 |
| 20260906200802 | 24 | 128 | 9.7 | 17.7 | 0.00 | 0.00 | 0.00 | 33 | 1014.9 |
| 20260906200259 | 24 | 128 | 8.0 | 17.7 | 0.00 | 0.00 | 0.00 | 33 | 1014.7 |
| 20260906195732 | 23 | 98 | 9.7 | 17.7 | 0.00 | 0.00 | 0.00 | 33 | 1014.9 |
| 20260906195230 | 23 | 153 | 11.3 | 17.7 | 0.00 | 0.00 | 0.00 | 35 | 1015.0 |
| 20260906194726 | 23 | 119 | 9.7 | 20.9 | 0.00 | 0.00 | 0.00 | 35 | 1015.2 |
| 20260906194431 | 23 | 108 | 9.7 | 20.9 | 0.00 | 0.00 | 0.00 | 35 | 1015.2 |
| 20260906193656 | 23 | 127 | 9.7 | 16.1 | 0.00 | 0.00 | 0.00 | 37 | 1015.3 |
| 20260906193155 | 23 | 107 | 9.7 | 19.3 | 0.00 | 0.00 | 0.00 | 37 | 1015.3 |
| 20260906192650 | 22 | 111 | 11.3 | 19.3 | 0.00 | 0.00 | 0.00 | 38 | 1015.6 |
| 20260906192125 | 22 | 90 | 11.3 | 19.3 | 0.00 | 0.00 | 0.00 | 38 | 1015.7 |
| 20260906191558 | 22 | 98 | 12.9 | 19.3 | 0.00 | 0.00 | 0.00 | 40 | 1015.8 |
| 20260906191033 | 22 | 107 | 12.9 | 17.7 | 0.00 | 0.00 | 0.00 | 39 | 1015.9 |
| 20260906190528 | 22 | 86 | 12.9 | 17.7 | 0.00 | 0.00 | 0.00 | 40 | 1016.0 |
| 20260906190004 | 22 | 101 | 12.9 | 17.7 | 0.00 | 0.00 | 0.00 | 39 | 1016.0 |
| 20260906185436 | 21 | 127 | 12.9 | 17.7 | 0.00 | 0.00 | 0.00 | 40 | 1016.3 |
| 20260906185141 | 21 | 114 | 11.3 | 16.1 | 0.00 | 0.00 | 0.00 | 40 | 1016.4 |
| 20260906184637 | 21 | 113 | 11.3 | 16.1 | 0.00 | 0.00 | 0.00 | 43 | 1016.5 |
| 20260906183904 | 21 | 100 | 12.9 | 19.3 | 0.00 | 0.00 | 0.00 | 43 | 1016.6 |
| 20260906183401 | 20 | 103 | 12.9 | 19.3 | 0.00 | 0.00 | 0.00 | 44 | 1016.9 |
| 20260906182834 | 20 | 106 | 9.7 | 19.3 | 0.00 | 0.00 | 0.00 | 46 | 1016.7 |
| 20260906182331 | 20 | 99 | 11.3 | 19.3 | 0.00 | 0.00 | 0.00 | 46 | 1017.0 |
| 20260906181805 | 20 | 118 | 11.3 | 19.3 | 0.00 | 0.00 | 0.00 | 48 | 1017.0 |
| 20260906181300 | 20 | 109 | 11.3 | 17.7 | 0.00 | 0.00 | 0.00 | 48 | 1017.1 |
| 20260906180734 | 19 | 88 | 11.3 | 19.3 | 0.00 | 0.00 | 0.00 | 49 | 1017.2 |
| 20260906180233 | 19 | 121 | 12.9 | 19.3 | 0.00 | 0.00 | 0.00 | 49 | 1017.2 |
| 20260906175728 | 19 | 140 | 11.3 | 17.7 | 0.00 | 0.00 | 0.00 | 50 | 1017.3 |
| 20260906175203 | 18 | 126 | 11.3 | 17.7 | 0.00 | 0.00 | 0.00 | 52 | 1017.5 |
| 20260906174921 | 18 | 128 | 11.3 | 17.7 | 0.00 | 0.00 | 0.00 | 51 | 1017.7 |
| 20260906174153 | 18 | 124 | 11.3 | 17.7 | 0.00 | 0.00 | 0.00 | 52 | 1017.8 |
| 20260906173650 | 18 | 99 | 11.3 | 17.7 | 0.00 | 0.00 | 0.00 | 52 | 1017.8 |
| 20260906173148 | 18 | 104 | 11.3 | 17.7 | 0.00 | 0.00 | 0.00 | 52 | 1017.9 |
| 20260906172647 | 18 | 113 | 9.7 | 17.7 | 0.00 | 0.00 | 0.00 | 52 | 1018.2 |
| 20260906172145 | 18 | 118 | 9.7 | 17.7 | 0.00 | 0.00 | 0.00 | 54 | 1018.2 |
| 20260906171637 | 17 | 103 | 9.7 | 17.7 | 0.00 | 0.00 | 0.00 | 53 | 1018.3 |
| 20260906171133 | 17 | 101 | 9.7 | 14.5 | 0.00 | 0.00 | 0.00 | 53 | 1018.4 |
| 20260906170628 | 17 | 92 | 11.3 | 17.7 | 0.00 | 0.00 | 0.00 | 53 | 1018.5 |
| 20260906170334 | 17 | 93 | 9.7 | 17.7 | 0.00 | 0.00 | 0.00 | 54 | 1018.5 |
| 20260906165538 | 17 | 96 | 8.0 | 16.1 | 0.00 | 0.00 | 0.00 | 55 | 1018.5 |
| 20260906165039 | 17 | 93 | 8.0 | 14.5 | 0.00 | 0.00 | 0.00 | 55 | 1018.5 |
| 20260906164514 | 17 | 107 | 8.0 | 14.5 | 0.00 | 0.00 | 0.00 | 56 | 1018.8 |
| 20260906164012 | 17 | 107 | 8.0 | 16.1 | 0.00 | 0.00 | 0.00 | 54 | 1018.6 |
| 20260906163741 | 17 | 109 | 9.7 | 16.1 | 0.00 | 0.00 | 0.00 | 56 | 1018.9 |
| 20260906163008 | 16 | 104 | 11.3 | 16.1 | 0.00 | 0.00 | 0.00 | 56 | 1018.9 |
| 20260906162506 | 16 | 105 | 11.3 | 16.1 | 0.00 | 0.00 | 0.00 | 55 | 1019.0 |
| 20260906162008 | 16 | 100 | 12.9 | 16.1 | 0.00 | 0.00 | 0.00 | 56 | 1019.1 |
| 20260906161442 | 16 | 102 | 8.0 | 16.1 | 0.00 | 0.00 | 0.00 | 57 | 1019.0 |
| 20260906160923 | 16 | 96 | 1.6 | 3.2 | 0.00 | 0.00 | 0.00 | 58 | 1019.1 |
| 20260906160919 | 16 | 119 | 3.2 | 14.5 | 0.00 | 0.00 | 0.00 | 56 | 1019.0 |
| 20260906155858 | 16 | 223 | 1.6 | 11.3 | 0.00 | 0.00 | 0.00 | 61 | 1019.2 |
| 20260906155340 | 15 | 225 | 3.2 | 11.3 | 0.00 | 0.00 | 0.00 | 62 | 1019.2 |
| 20260906154840 | 15 | 246 | 4.8 | 12.9 | 0.00 | 0.00 | 0.00 | 62 | 1019.5 |
| 20260906154340 | 15 | 255 | 8.0 | 16.1 | 0.00 | 0.00 | 0.00 | 63 | 1019.3 |
| 20260906153824 | 15 | 260 | 8.0 | 16.1 | 0.00 | 0.00 | 0.00 | 62 | 1019.5 |
| 20260906153302 | 15 | 247 | 9.7 | 16.1 | 0.00 | 0.00 | 0.00 | 64 | 1019.5 |
| 20260906153010 | 15 | 294 | 11.3 | 16.1 | 0.00 | 0.00 | 0.00 | 64 | 1019.5 |
| 20260906152452 | 15 | 252 | 11.3 | 16.1 | 0.00 | 0.00 | 0.00 | 64 | 1019.6 |
| 20260906151722 | 15 | 279 | 11.3 | 17.7 | 0.00 | 0.00 | 0.00 | 64 | 1019.6 |
| 20260906151222 | 15 | 269 | 11.3 | 17.7 | 0.00 | 0.00 | 0.00 | 64 | 1019.6 |
| 20260906150722 | 14 | 288 | 12.9 | 20.9 | 0.00 | 0.00 | 0.00 | 65 | 1019.7 |
| 20260906150222 | 14 | 293 | 12.9 | 19.3 | 0.00 | 0.00 | 0.00 | 66 | 1019.6 |
| 20260906150159 | 14 | 0 | 12.9 | 19.3 | 0.00 | 0.00 | 0.00 | 67 | 1019.7 |
| 20260906145154 | 13 | 284 | 14.5 | 19.3 | 0.00 | 0.00 | 0.00 | 68 | 1019.7 |
| 20260906144628 | 13 | 0 | 14.5 | 19.3 | 0.00 | 0.00 | 0.00 | 69 | 1019.8 |
| 20260906144101 | 13 | 0 | 14.5 | 19.3 | 0.00 | 0.00 | 0.00 | 71 | 1019.8 |
| 20260906143536 | 12 | 266 | 14.5 | 20.9 | 0.00 | 0.00 | 0.00 | 72 | 1019.8 |
| 20260906143010 | 12 | 280 | 14.5 | 20.9 | 0.00 | 0.00 | 0.00 | 75 | 1019.9 |
| 20260906142442 | 12 | 0 | 16.1 | 20.9 | 0.00 | 0.00 | 0.00 | 75 | 1019.9 |
| 20260906141933 | 12 | 273 | 14.5 | 20.9 | 0.00 | 0.00 | 0.00 | 76 | 1019.9 |
| 20260906141405 | 11 | 272 | 12.9 | 19.3 | 0.00 | 0.00 | 0.00 | 77 | 1019.9 |
| 20260906140839 | 11 | 267 | 14.5 | 19.3 | 0.00 | 0.00 | 0.00 | 79 | 1019.9 |
| 20260906140313 | 10 | 0 | 12.9 | 19.3 | 0.00 | 0.00 | 0.00 | 81 | 1019.9 |
| 20260906135747 | 10 | 0 | 12.9 | 19.3 | 0.00 | 0.00 | 0.00 | 82 | 1019.9 |
| 20260906135221 | 9 | 271 | 12.9 | 19.3 | 0.00 | 0.00 | 0.00 | 83 | 1019.9 |
| 20260906134926 | 9 | 269 | 12.9 | 17.7 | 0.00 | 0.00 | 0.00 | 84 | 1019.9 |
| 20260906134129 | 8 | 260 | 12.9 | 17.7 | 0.00 | 0.00 | 0.00 | 84 | 1019.9 |
| 20260906133625 | 8 | 259 | 14.5 | 17.7 | 0.00 | 0.00 | 0.00 | 84 | 1019.8 |
| 20260906133123 | 8 | 0 | 14.5 | 20.9 | 0.00 | 0.00 | 0.00 | 83 | 1019.8 |
| 20260906132619 | 8 | 0 | 16.1 | 20.9 | 0.00 | 0.00 | 0.00 | 83 | 1019.8 |
| 20260906132349 | 8 | 269 | 16.1 | 19.3 | 0.00 | 0.00 | 0.00 | 83 | 1019.7 |
| 20260906131619 | 8 | 0 | 16.1 | 20.9 | 0.00 | 0.00 | 0.00 | 83 | 1019.7 |
| 20260906131047 | 8 | 0 | 16.1 | 20.9 | 0.00 | 0.00 | 0.00 | 82 | 1019.7 |
| 20260906130543 | 8 | 0 | 16.1 | 20.9 | 0.00 | 0.00 | 0.00 | 81 | 1019.6 |
| 20260906130519 | 8 | 263 | 14.5 | 20.9 | 0.00 | 0.00 | 0.00 | 78 | 1019.6 |
| 20260906125513 | 8 | 263 | 9.7 | 17.7 | 0.00 | 0.00 | 0.00 | 79 | 1019.7 |
| 20260906124947 | 8 | 267 | 9.7 | 17.7 | 0.00 | 0.00 | 0.00 | 77 | 1019.7 |
| 20260906124444 | 8 | 0 | 12.9 | 17.7 | 0.00 | 0.00 | 0.00 | 77 | 1019.6 |
| 20260906123931 | 8 | 295 | 14.5 | 16.1 | 0.00 | 0.00 | 0.00 | 80 | 1019.5 |
| 20260906123434 | 7 | 294 | 12.9 | 17.7 | 0.00 | 0.00 | 0.00 | 84 | 1019.5 |
| 20260906123203 | 6 | 255 | 11.3 | 17.7 | 0.00 | 0.00 | 0.00 | 80 | 1019.5 |
| 20260906122427 | 6 | 255 | 8.0 | 16.1 | 0.00 | 0.00 | 0.00 | 87 | 1019.5 |
| 20260906121901 | 5 | 276 | 3.2 | 16.1 | 0.00 | 0.00 | 0.00 | 90 | 1019.2 |
| 20260906121358 | 4 | 246 | 1.6 | 6.4 | 0.00 | 0.00 | 0.00 | 86 | 1018.9 |
| 20260906120831 | 4 | 240 | 0.0 | 6.4 | 0.00 | 0.00 | 0.00 | 86 | 1018.8 |
| 20260906120327 | 4 | 245 | 0.0 | 0.0 | 0.00 | 0.00 | 0.00 | 86 | 1018.8 |
| 20260906115805 | 4 | 245 | 0.0 | 3.2 | 0.00 | 0.00 | 0.00 | 86 | 1018.8 |
| 20260906115801 | 4 | 245 | 0.0 | 3.2 | 0.00 | 0.00 | 0.00 | 86 | 1018.8 |
| 20260906114731 | 4 | 244 | 0.0 | 3.2 | 0.00 | 0.00 | 0.00 | 86 | 1018.8 |
| 20260906114206 | 4 | 244 | 0.0 | 3.2 | 0.00 | 0.00 | 0.00 | 86 | 1018.8 |
| 20260906113703 | 4 | 244 | 0.0 | 3.2 | 0.00 | 0.00 | 0.00 | 86 | 1018.8 |
| 20260906113159 | 4 | 244 | 1.6 | 4.8 | 0.00 | 0.00 | 0.00 | 86 | 1018.8 |
| 20260906112650 | 4 | 244 | 1.6 | 6.4 | 0.00 | 0.00 | 0.00 | 86 | 1018.8 |
| 20260906112149 | 4 | 242 | 0.0 | 4.8 | 0.00 | 0.00 | 0.00 | 86 | 1018.8 |
| 20260906111623 | 4 | 243 | 1.6 | 8.0 | 0.00 | 0.00 | 0.00 | 85 | 1018.9 |
| 20260906111120 | 5 | 243 | 3.2 | 8.0 | 0.00 | 0.00 | 0.00 | 85 | 1018.9 |
| 20260906110553 | 5 | 246 | 4.8 | 11.3 | 0.00 | 0.00 | 0.00 | 85 | 1018.8 |
| 20260906110028 | 5 | 243 | 3.2 | 11.3 | 0.00 | 0.00 | 0.00 | 84 | 1018.8 |
| 20260906105503 | 5 | 250 | 3.2 | 8.0 | 0.00 | 0.00 | 0.00 | 84 | 1018.8 |
| 20260906105002 | 5 | 250 | 4.8 | 8.0 | 0.00 | 0.00 | 0.00 | 84 | 1018.9 |
| 20260906104445 | 5 | 241 | 4.8 | 11.3 | 0.00 | 0.00 | 0.00 | 83 | 1018.8 |
| 20260906103947 | 5 | 238 | 3.2 | 9.7 | 0.00 | 0.00 | 0.00 | 82 | 1018.9 |
| 20260906103653 | 6 | 254 | 3.2 | 6.4 | 0.00 | 0.00 | 0.00 | 82 | 1018.9 |
| 20260906102917 | 6 | 254 | 1.6 | 6.4 | 0.00 | 0.00 | 0.00 | 83 | 1018.8 |
| 20260906102623 | 5 | 250 | 4.8 | 12.9 | 0.00 | 0.00 | 0.00 | 83 | 1018.8 |
| 20260906102057 | 5 | 250 | 6.4 | 12.9 | 0.00 | 0.00 | 0.00 | 82 | 1018.8 |
| 20260906101322 | 6 | 244 | 1.6 | 6.4 | 0.00 | 0.00 | 0.00 | 81 | 1018.8 |
| 20260906100757 | 6 | 246 | 3.2 | 6.4 | 0.00 | 0.00 | 0.00 | 81 | 1018.8 |
| 20260906100525 | 6 | 246 | 3.2 | 6.4 | 0.00 | 0.00 | 0.00 | 80 | 1018.9 |
| 20260906095753 | 6 | 246 | 1.6 | 11.3 | 0.00 | 0.00 | 0.00 | 80 | 1018.8 |
| 20260906095228 | 6 | 246 | 4.8 | 11.3 | 0.00 | 0.00 | 0.00 | 79 | 1018.8 |
| 20260906094726 | 6 | 245 | 4.8 | 12.9 | 0.00 | 0.00 | 0.00 | 78 | 1018.6 |
| 20260906094202 | 7 | 243 | 3.2 | 12.9 | 0.00 | 0.00 | 0.00 | 77 | 1018.6 |
| 20260906093701 | 7 | 243 | 3.2 | 8.0 | 0.00 | 0.00 | 0.00 | 75 | 1018.6 |
| 20260906093145 | 7 | 257 | 4.8 | 11.3 | 0.00 | 0.00 | 0.00 | 75 | 1018.8 |
| 20260906092916 | 7 | 287 | 6.4 | 11.3 | 0.00 | 0.00 | 0.00 | 75 | 1018.8 |
| 20260906092145 | 7 | 260 | 4.8 | 11.3 | 0.00 | 0.00 | 0.00 | 75 | 1018.9 |
| 20260906091647 | 8 | 226 | 4.8 | 9.7 | 0.00 | 0.00 | 0.00 | 75 | 1018.9 |
| 20260906091128 | 8 | 251 | 4.8 | 11.3 | 0.00 | 0.00 | 0.00 | 73 | 1018.9 |
| 20260906090859 | 8 | 220 | 6.4 | 11.3 | 0.00 | 0.00 | 0.00 | 72 | 1018.8 |
| 20260906090111 | 8 | 216 | 6.4 | 12.9 | 0.00 | 0.00 | 0.00 | 70 | 1018.8 |
| 20260906085612 | 8 | 298 | 6.4 | 12.9 | 0.00 | 0.00 | 0.00 | 72 | 1018.8 |
| 20260906085054 | 9 | 301 | 8.0 | 12.9 | 0.00 | 0.00 | 0.00 | 70 | 1018.9 |
| 20260906084551 | 10 | 265 | 8.0 | 16.1 | 0.00 | 0.00 | 0.00 | 67 | 1018.9 |
| 20260906084050 | 10 | 298 | 8.0 | 16.1 | 0.00 | 0.00 | 0.00 | 69 | 1018.6 |
| 20260906083550 | 9 | 268 | 6.4 | 12.9 | 0.00 | 0.00 | 0.00 | 69 | 1018.8 |
| 20260906083028 | 10 | 235 | 3.2 | 9.7 | 0.00 | 0.00 | 0.00 | 69 | 1018.8 |
| 20260906082755 | 10 | 311 | 4.8 | 8.0 | 0.00 | 0.00 | 0.00 | 68 | 1018.9 |
| 20260906082242 | 10 | 319 | 3.2 | 8.0 | 0.00 | 0.00 | 0.00 | 67 | 1018.9 |
| 20260906081512 | 10 | 224 | 4.8 | 14.5 | 0.00 | 0.00 | 0.00 | 65 | 1018.9 |
| 20260906080947 | 10 | 300 | 4.8 | 14.5 | 0.00 | 0.00 | 0.00 | 67 | 1018.9 |
| 20260906080422 | 10 | 233 | 4.8 | 11.3 | 0.00 | 0.00 | 0.00 | 63 | 1019.1 |
| 20260906075856 | 12 | 285 | 4.8 | 11.3 | 0.00 | 0.00 | 0.00 | 60 | 1018.9 |
| 20260906075341 | 12 | 0 | 6.4 | 12.9 | 0.00 | 0.00 | 0.00 | 60 | 1018.9 |
| 20260906074838 | 12 | 295 | 6.4 | 12.9 | 0.00 | 0.00 | 0.00 | 61 | 1018.9 |
| 20260906074337 | 11 | 311 | 6.4 | 11.3 | 0.00 | 0.00 | 0.00 | 61 | 1018.9 |
| 20260906073829 | 11 | 310 | 8.0 | 11.3 | 0.00 | 0.00 | 0.00 | 60 | 1019.0 |
| 20260906073329 | 12 | 296 | 8.0 | 11.3 | 0.00 | 0.00 | 0.00 | 59 | 1019.1 |
| 20260906072826 | 12 | 275 | 9.7 | 12.9 | 0.00 | 0.00 | 0.00 | 58 | 1019.1 |
| 20260906071822 | 13 | 304 | 8.0 | 12.9 | 0.00 | 0.00 | 0.00 | 56 | 1019.2 |
| 20260906071254 | 13 | 296 | 8.0 | 12.9 | 0.00 | 0.00 | 0.00 | 57 | 1019.2 |
| 20260906070726 | 13 | 298 | 6.4 | 12.9 | 0.00 | 0.00 | 0.00 | 57 | 1019.1 |
| 20260906070456 | 12 | 0 | 6.4 | 12.9 | 0.00 | 0.00 | 0.00 | 56 | 1019.1 |
| 20260906065722 | 13 | 287 | 8.0 | 12.9 | 0.00 | 0.00 | 0.00 | 55 | 1019.2 |
| 20260906065156 | 13 | 301 | 9.7 | 14.5 | 0.00 | 0.00 | 0.00 | 54 | 1019.1 |
| 20260906064652 | 14 | 288 | 9.7 | 14.5 | 0.00 | 0.00 | 0.00 | 53 | 1019.0 |
| 20260906064150 | 14 | 290 | 9.7 | 14.5 | 0.00 | 0.00 | 0.00 | 52 | 1019.0 |
| 20260906063646 | 14 | 0 | 11.3 | 17.7 | 0.00 | 0.00 | 0.00 | 52 | 1019.1 |
| 20260906063120 | 14 | 319 | 11.3 | 17.7 | 0.00 | 0.00 | 0.00 | 52 | 1019.2 |
| 20260906062616 | 14 | 305 | 9.7 | 14.5 | 0.00 | 0.00 | 0.00 | 52 | 1019.3 |
| 20260906062341 | 14 | 265 | 8.0 | 14.5 | 0.00 | 0.00 | 0.00 | 52 | 1019.3 |
| 20260906061838 | 15 | 324 | 9.7 | 16.1 | 0.00 | 0.00 | 0.00 | 52 | 1019.3 |
| 20260906061041 | 14 | 291 | 9.7 | 16.1 | 0.00 | 0.00 | 0.00 | 52 | 1019.2 |
| 20260906060539 | 15 | 300 | 9.7 | 16.1 | 0.00 | 0.00 | 0.00 | 52 | 1019.2 |
| 20260906060035 | 15 | 301 | 8.0 | 16.1 | 0.00 | 0.00 | 0.00 | 51 | 1019.2 |
| 20260906055804 | 15 | 285 | 8.0 | 12.9 | 0.00 | 0.00 | 0.00 | 50 | 1019.1 |
| 20260906055005 | 15 | 288 | 11.3 | 14.5 | 0.00 | 0.00 | 0.00 | 50 | 1019.1 |
| 20260906054713 | 15 | 315 | 11.3 | 14.5 | 0.00 | 0.00 | 0.00 | 49 | 1019.0 |
| 20260906053913 | 15 | 299 | 11.3 | 16.1 | 0.00 | 0.00 | 0.00 | 50 | 1019.1 |
| 20260906053641 | 15 | 298 | 11.3 | 16.1 | 0.00 | 0.00 | 0.00 | 49 | 1019.1 |
| 20260906052841 | 15 | 285 | 9.7 | 14.5 | 0.00 | 0.00 | 0.00 | 49 | 1019.1 |
| 20260906052335 | 15 | 281 | 8.0 | 14.5 | 0.00 | 0.00 | 0.00 | 49 | 1019.1 |
| 20260906052040 | 15 | 277 | 11.3 | 19.3 | 0.00 | 0.00 | 0.00 | 49 | 1019.2 |
| 20260906051307 | 15 | 308 | 11.3 | 20.9 | 0.00 | 0.00 | 0.00 | 49 | 1019.1 |
| 20260906050804 | 15 | 0 | 11.3 | 20.9 | 0.00 | 0.00 | 0.00 | 48 | 1019.0 |
| 20260906050239 | 16 | 0 | 9.7 | 14.5 | 0.00 | 0.00 | 0.00 | 48 | 1019.0 |
| 20260906045944 | 16 | 308 | 9.7 | 14.5 | 0.00 | 0.00 | 0.00 | 48 | 1019.0 |
| 20260906045145 | 16 | 313 | 9.7 | 14.5 | 0.00 | 0.00 | 0.00 | 47 | 1019.0 |
| 20260906044619 | 16 | 302 | 9.7 | 14.5 | 0.00 | 0.00 | 0.00 | 47 | 1018.9 |
| 20260906044114 | 16 | 323 | 9.7 | 14.5 | 0.00 | 0.00 | 0.00 | 47 | 1019.0 |
| 20260906043549 | 16 | 304 | 8.0 | 12.9 | 0.00 | 0.00 | 0.00 | 47 | 1019.0 |
| 20260906043459 | 16 | 268 | 6.4 | 12.9 | 0.00 | 0.00 | 0.00 | 46 | 1018.9 |
| 20260906043337 | 16 | 269 | 8.0 | 12.9 | 0.00 | 0.00 | 0.00 | 46 | 1019.0 |
| 20260906042222 | 16 | 282 | 4.8 | 11.3 | 0.00 | 0.00 | 0.00 | 46 | 1018.9 |
| 20260906041716 | 16 | 249 | 4.8 | 9.7 | 0.00 | 0.00 | 0.00 | 46 | 1018.9 |
| 20260906040941 | 16 | 231 | 8.0 | 14.5 | 0.00 | 0.00 | 0.00 | 45 | 1018.8 |
| 20260906040416 | 16 | 254 | 8.0 | 14.5 | 0.00 | 0.00 | 0.00 | 45 | 1018.8 |
| 20260906035850 | 16 | 271 | 6.4 | 12.9 | 0.00 | 0.00 | 0.00 | 47 | 1018.8 |
| 20260906035345 | 16 | 254 | 8.0 | 12.9 | 0.00 | 0.00 | 0.00 | 46 | 1018.9 |
| 20260906034819 | 16 | 300 | 8.0 | 12.9 | 0.00 | 0.00 | 0.00 | 45 | 1018.8 |
| 20260906034253 | 16 | 309 | 6.4 | 14.5 | 0.00 | 0.00 | 0.00 | 45 | 1018.8 |
| 20260906034021 | 16 | 334 | 6.4 | 14.5 | 0.00 | 0.00 | 0.00 | 44 | 1018.8 |
| 20260906033223 | 16 | 311 | 8.0 | 14.5 | 0.00 | 0.00 | 0.00 | 43 | 1018.8 |
| 20260906032926 | 17 | 329 | 8.0 | 14.5 | 0.00 | 0.00 | 0.00 | 43 | 1018.6 |
| 20260906032150 | 17 | 261 | 6.4 | 12.9 | 0.00 | 0.00 | 0.00 | 43 | 1018.6 |
| 20260906031646 | 17 | 288 | 6.4 | 11.3 | 0.00 | 0.00 | 0.00 | 42 | 1018.5 |
| 20260906031121 | 17 | 324 | 6.4 | 11.3 | 0.00 | 0.00 | 0.00 | 42 | 1018.5 |
| 20260906030826 | 17 | 304 | 8.0 | 16.1 | 0.00 | 0.00 | 0.00 | 41 | 1018.4 |
| 20260906030027 | 17 | 281 | 8.0 | 16.1 | 0.00 | 0.00 | 0.00 | 41 | 1018.3 |
| 20260906025525 | 17 | 275 | 8.0 | 12.9 | 0.00 | 0.00 | 0.00 | 41 | 1018.3 |
| 20260906025021 | 17 | 321 | 6.4 | 11.3 | 0.00 | 0.00 | 0.00 | 42 | 1018.3 |
| 20260906024517 | 17 | 313 | 8.0 | 14.5 | 0.00 | 0.00 | 0.00 | 42 | 1018.2 |
| 20260906023951 | 18 | 246 | 9.7 | 14.5 | 0.00 | 0.00 | 0.00 | 41 | 1018.0 |
| 20260906023440 | 18 | 279 | 9.7 | 16.1 | 0.00 | 0.00 | 0.00 | 40 | 1018.0 |
| 20260906023213 | 18 | 306 | 8.0 | 14.5 | 0.00 | 0.00 | 0.00 | 40 | 1018.0 |
| 20260906022413 | 18 | 0 | 6.4 | 12.9 | 0.00 | 0.00 | 0.00 | 40 | 1017.9 |
| 20260906021911 | 18 | 0 | 4.8 | 12.9 | 0.00 | 0.00 | 0.00 | 39 | 1017.8 |
| 20260906021639 | 18 | 309 | 4.8 | 8.0 | 0.00 | 0.00 | 0.00 | 38 | 1017.8 |
| 20260906020841 | 19 | 247 | 6.4 | 20.9 | 0.00 | 0.00 | 0.00 | 37 | 1017.8 |
| 20260906020315 | 20 | 264 | 11.3 | 20.9 | 0.00 | 0.00 | 0.00 | 36 | 1017.7 |
| 20260906015809 | 21 | 248 | 11.3 | 20.9 | 0.00 | 0.00 | 0.00 | 34 | 1017.7 |
| 20260906015306 | 21 | 24 | 9.7 | 20.9 | 0.00 | 0.00 | 0.00 | 33 | 1017.6 |
| 20260906014804 | 21 | 350 | 9.7 | 25.7 | 0.00 | 0.00 | 0.00 | 33 | 1017.7 |
| 20260906014300 | 21 | 21 | 11.3 | 25.7 | 0.00 | 0.00 | 0.00 | 33 | 1017.6 |
| 20260906013757 | 21 | 349 | 12.9 | 20.9 | 0.00 | 0.00 | 0.00 | 33 | 1017.5 |
| 20260906013253 | 21 | 344 | 12.9 | 20.9 | 0.00 | 0.00 | 0.00 | 33 | 1017.5 |
| 20260906012748 | 21 | 20 | 9.7 | 22.5 | 0.00 | 0.00 | 0.00 | 32 | 1017.5 |
| 20260906012243 | 22 | 55 | 9.7 | 25.7 | 0.00 | 0.00 | 0.00 | 32 | 1017.5 |
| 20260906011715 | 22 | 29 | 12.9 | 25.7 | 0.00 | 0.00 | 0.00 | 32 | 1017.3 |
| 20260906011150 | 22 | 340 | 14.5 | 27.4 | 0.00 | 0.00 | 0.00 | 31 | 1017.5 |
| 20260906010647 | 22 | 0 | 14.5 | 27.4 | 0.00 | 0.00 | 0.00 | 31 | 1017.3 |
| 20260906010415 | 22 | 341 | 14.5 | 27.4 | 0.00 | 0.00 | 0.00 | 31 | 1017.2 |
| 20260906005640 | 22 | 355 | 14.5 | 27.4 | 0.00 | 0.00 | 0.00 | 31 | 1017.2 |
| 20260906005137 | 22 | 355 | 16.1 | 30.6 | 0.00 | 0.00 | 0.00 | 31 | 1017.2 |
| 20260906004633 | 22 | 13 | 14.5 | 30.6 | 0.00 | 0.00 | 0.00 | 32 | 1017.2 |
| 20260906004340 | 22 | 31 | 14.5 | 24.1 | 0.00 | 0.00 | 0.00 | 31 | 1017.0 |
| 20260906003603 | 22 | 355 | 16.1 | 30.6 | 0.00 | 0.00 | 0.00 | 32 | 1017.1 |
| 20260906003037 | 22 | 355 | 14.5 | 30.6 | 0.00 | 0.00 | 0.00 | 31 | 1017.1 |
| 20260906002513 | 23 | 37 | 11.3 | 29.0 | 0.00 | 0.00 | 0.00 | 30 | 1017.2 |
| 20260906002009 | 23 | 0 | 11.3 | 17.7 | 0.00 | 0.00 | 0.00 | 30 | 1017.1 |
| 20260906001447 | 23 | 17 | 11.3 | 27.4 | 0.00 | 0.00 | 0.00 | 31 | 1017.1 |
| 20260906000946 | 23 | 0 | 11.3 | 27.4 | 0.00 | 0.00 | 0.00 | 31 | 1017.2 |
| 20260906000659 | 23 | 34 | 16.1 | 27.4 | 0.00 | 0.00 | 0.00 | 31 | 1017.1 |
| 20260905235929 | 23 | 13 | 19.3 | 32.2 | 0.00 | 0.00 | 0.00 | 30 | 1017.1 |
| 20260905235428 | 23 | 21 | 17.7 | 32.2 | 0.00 | 0.00 | 0.00 | 30 | 1017.1 |
| 20260905234923 | 24 | 21 | 17.7 | 30.6 | 0.00 | 0.00 | 0.00 | 30 | 1017.0 |
| 20260905234400 | 24 | 31 | 16.1 | 30.6 | 0.00 | 0.00 | 0.00 | 30 | 1017.0 |
| 20260905233842 | 23 | 49 | 12.9 | 29.0 | 0.00 | 0.00 | 0.00 | 30 | 1017.0 |
| 20260905233344 | 24 | 333 | 11.3 | 29.0 | 0.00 | 0.00 | 0.00 | 30 | 1017.1 |
| 20260905233058 | 24 | 39 | 12.9 | 27.4 | 0.00 | 0.00 | 0.00 | 30 | 1017.0 |
| 20260905232544 | 23 | 336 | 12.9 | 29.0 | 0.00 | 0.00 | 0.00 | 30 | 1017.0 |
| 20260905231815 | 24 | 34 | 14.5 | 29.0 | 0.00 | 0.00 | 0.00 | 29 | 1017.0 |
| 20260905231533 | 25 | 49 | 12.9 | 30.6 | 0.00 | 0.00 | 0.00 | 28 | 1017.0 |
| 20260905230759 | 25 | 46 | 11.3 | 30.6 | 0.00 | 0.00 | 0.00 | 27 | 1017.0 |
| 20260905230257 | 25 | 17 | 16.1 | 27.4 | 0.00 | 0.00 | 0.00 | 28 | 1017.0 |